Location: Cieszkowy
(50.3290°N, 20.5336°E)
Time: 00:07:40
(UTC+00:00)

Cosmos 1606 Rocket - Pass Details

Date: 15 June 2024
Orbit: 599 x 628 km, 82.5° (Epoch: 18 July)

Event Time Altitude Azimuth Distance (km) Brightness Sun altitude
Rises 00:37:46 0° 353° (N) 2,931 8.0 -11.8°
Reaches altitude 10° 00:40:05 10° 359° (N) 2,016 7.2 -11.6°
Maximum altitude 00:44:25 49° 75° (ENE) 808 4.5 -11.2°
Drops below altitude 10° 00:48:43 10° 151° (SSE) 1,987 5.9 -10.9°
Sets 00:50:59 0° 157° (SSE) 2,883 6.6 -10.7°
Enters shadow 00:50:59 - 157° (SSE) 2,887 6.6 -10.7°
